Location: Toronto
(43.6672°N, 79.4170°W)
Time: 01:48:16
(UTC-05:00)

ISS - Visible Passes

Search period start: 03 December 2016 00:00
Search period end: 13 December 2016 00:00
Orbit: 401 x 410 km, 51.6° (Epoch: 03 December)

Date Brightness Start Highest point End Pass type
(mag) Time Alt. Az. Time Alt. Az. Time Alt. Az.
03 Dec -3.2 17:43:48 10° SW 17:47:03 62° SE 17:49:07 20° ENE visible
03 Dec -0.4 19:20:49 10° W 19:21:48 17° WNW 19:21:48 17° WNW visible
04 Dec -2.4 18:28:34 10° W 18:31:42 39° NNW 18:32:02 38° N visible
05 Dec -3.0 17:36:26 10° WSW 17:39:41 61° NNW 17:42:13 16° NE visible
05 Dec -0.5 19:14:01 10° WNW 19:14:54 15° NW 19:14:54 15° NW visible
06 Dec -1.8 18:21:41 10° WNW 18:24:32 26° NNW 18:25:03 25° N visible
07 Dec -2.2 17:29:22 10° W 17:32:26 34° NNW 17:35:09 12° NE visible
07 Dec -0.5 19:07:04 10° NW 19:07:50 14° NW 19:07:50 14° NW visible
08 Dec -1.6 18:14:48 10° WNW 18:17:24 21° N 18:17:55 20° N visible
09 Dec -1.7 17:22:26 10° WNW 17:25:13 24° NNW 17:27:59 10° NE visible
09 Dec -0.6 18:59:51 10° NW 19:00:40 14° NW 19:00:40 14° NW visible
10 Dec -1.6 18:07:43 10° NW 18:10:15 20° N 18:10:45 19° NNE visible
11 Dec -1.5 17:15:27 10° NW 17:18:01 20° N 17:20:35 10° NE visible
11 Dec -0.9 18:52:23 10° NW 18:53:32 17° NNW 18:53:32 17° NNW visible
12 Dec -1.8 18:00:22 10° NW 18:03:03 22° N 18:03:41 21° NNE visible
